When you browse on this site, cookies collect data to enhance your experience and personalize the content and advertising you see.
Visit our Privacy Policy to learn more. By continuing to use the site, you agree to this use of cookies and data.

Hourly Weather Chichester

Today, 8 July, Wednesday

Time Temperature Precipitation Wind Pressure Humidity
00:00 +15°C° 0 mm 8 mps 761 mmHg 89%
01:00 +15°C° 0.1 mm 8 mps 760 mmHg 89%
02:00 +15°C° 0.1 mm 7 mps 760 mmHg 90%
03:00 +15°C° 0.1 mm 7 mps 759 mmHg 91%
04:00 +15°C° 0.1 mm 7 mps 759 mmHg 92%
05:00 +16°C° 0.1 mm 7 mps 759 mmHg 92%
06:00 +16°C° 0.1 mm 7 mps 759 mmHg 93%
07:00 +16°C° 0.6 mm 7 mps 759 mmHg 94%
08:00 +16°C° 0.6 mm 7 mps 760 mmHg 95%
09:00 +16°C° 0.6 mm 6 mps 760 mmHg 95%
10:00 +16°C° 0.4 mm 6 mps 760 mmHg 95%
11:00 +16°C° 0.4 mm 6 mps 760 mmHg 96%
12:00 +16°C° 0.4 mm 6 mps 760 mmHg 96%
13:00 +17°C° 0.1 mm 6 mps 760 mmHg 94%
14:00 +17°C° 0.1 mm 6 mps 760 mmHg 93%
15:00 +19°C° 0.1 mm 6 mps 760 mmHg 91%
16:00 +19°C° 0.1 mm 6 mps 760 mmHg 90%
17:00 +19°C° 0.1 mm 6 mps 760 mmHg 89%
18:00 +20°C° 0.1 mm 5 mps 760 mmHg 88%
19:00 +19°C° 0 mm 5 mps 760 mmHg 90%
20:00 +17°C° 0 mm 5 mps 760 mmHg 92%
21:00 +18°C° 0 mm 4 mps 760 mmHg 95%
22:00 +16°C° 0 mm 5 mps 760 mmHg 95%
23:00 +16°C° 0 mm 5 mps 759 mmHg 95%

Tomorrow, 9 July, Thursday

Time Temperature Precipitation Wind Pressure Humidity
00:00 +16°C° 0 mm 6 mps 759 mmHg 95%
01:00 +16°C° 0 mm 6 mps 759 mmHg 95%
02:00 +15°C° 0 mm 7 mps 759 mmHg 95%
03:00 +15°C° 0 mm 7 mps 758 mmHg 95%
04:00 +15°C° 0 mm 7 mps 758 mmHg 94%
05:00 +15°C° 0 mm 7 mps 758 mmHg 93%
06:00 +15°C° 0 mm 8 mps 758 mmHg 92%
07:00 +16°C° 0 mm 8 mps 758 mmHg 91%
08:00 +17°C° 0 mm 8 mps 758 mmHg 89%
09:00 +18°C° 0 mm 8 mps 758 mmHg 87%
10:00 +18°C° 0.1 mm 8 mps 758 mmHg 85%
11:00 +18°C° 0.1 mm 9 mps 758 mmHg 83%
12:00 +19°C° 0.1 mm 9 mps 758 mmHg 81%
13:00 +19°C° 0.1 mm 9 mps 758 mmHg 81%
14:00 +19°C° 0.1 mm 9 mps 758 mmHg 81%
15:00 +20°C° 0.1 mm 8 mps 757 mmHg 81%
16:00 +20°C° 0.1 mm 8 mps 757 mmHg 82%
17:00 +20°C° 0.1 mm 8 mps 757 mmHg 83%
18:00 +18°C° 0.1 mm 7 mps 757 mmHg 85%
19:00 +19°C° 0.1 mm 6 mps 757 mmHg 88%
20:00 +17°C° 0.1 mm 5 mps 757 mmHg 91%
21:00 +17°C° 0.1 mm 4 mps 758 mmHg 94%
22:00 +17°C° 0 mm 4 mps 757 mmHg 94%
23:00 +15°C° 0 mm 4 mps 757 mmHg 94%

Day after tomorrow, 10 July, Friday

Time Temperature Precipitation Wind Pressure Humidity
00:00 +15°C° 0 mm 4 mps 757 mmHg 94%
01:00 +14°C° 0.1 mm 4 mps 758 mmHg 93%
02:00 +14°C° 0.1 mm 5 mps 758 mmHg 92%
03:00 +13°C° 0.1 mm 5 mps 758 mmHg 92%
04:00 +13°C° 0 mm 5 mps 758 mmHg 91%
05:00 +13°C° 0 mm 6 mps 758 mmHg 90%
06:00 +13°C° 0 mm 6 mps 759 mmHg 89%
07:00 +14°C° 0 mm 6 mps 759 mmHg 81%
08:00 +15°C° 0 mm 6 mps 760 mmHg 74%
09:00 +16°C° 0 mm 6 mps 760 mmHg 66%
10:00 +17°C° 0 mm 6 mps 761 mmHg 61%
11:00 +17°C° 0 mm 6 mps 761 mmHg 56%
12:00 +19°C° 0 mm 6 mps 761 mmHg 51%
13:00 +19°C° 0 mm 6 mps 761 mmHg 51%
14:00 +19°C° 0 mm 6 mps 762 mmHg 51%
15:00 +20°C° 0 mm 5 mps 762 mmHg 51%
16:00 +19°C° 0.1 mm 5 mps 762 mmHg 56%
17:00 +19°C° 0.1 mm 5 mps 762 mmHg 60%
18:00 +17°C° 0.1 mm 5 mps 763 mmHg 65%
19:00 +16°C° 0 mm 5 mps 763 mmHg 68%
20:00 +14°C° 0 mm 5 mps 764 mmHg 72%
21:00 +12°C° 0 mm 4 mps 764 mmHg 76%
22:00 +12°C° 0 mm 5 mps 765 mmHg 77%
23:00 +10°C° 0 mm 5 mps 765 mmHg 79%

11 July, Saturday

Time Temperature Precipitation Wind Pressure Humidity
00:00 +9°C° 0 mm 5 mps 765 mmHg 81%
01:00 +9°C° 0 mm 5 mps 765 mmHg 83%
02:00 +8°C° 0 mm 5 mps 766 mmHg 85%
03:00 +8°C° 0 mm 4 mps 766 mmHg 87%
04:00 +8°C° 0 mm 5 mps 766 mmHg 84%
05:00 +9°C° 0 mm 5 mps 766 mmHg 81%
06:00 +10°C° 0 mm 5 mps 767 mmHg 78%
07:00 +13°C° 0 mm 4 mps 767 mmHg 72%
08:00 +15°C° 0 mm 4 mps 767 mmHg 65%
09:00 +17°C° 0 mm 4 mps 768 mmHg 59%
10:00 +18°C° 0 mm 3 mps 768 mmHg 56%
11:00 +19°C° 0 mm 3 mps 768 mmHg 52%
12:00 +20°C° 0 mm 3 mps 768 mmHg 49%
13:00 +20°C° 0 mm 3 mps 768 mmHg 51%
14:00 +20°C° 0 mm 3 mps 768 mmHg 52%
15:00 +20°C° 0 mm 4 mps 768 mmHg 53%
16:00 +20°C° 0 mm 4 mps 768 mmHg 56%
17:00 +20°C° 0 mm 3 mps 768 mmHg 58%
18:00 +20°C° 0 mm 3 mps 768 mmHg 60%
19:00 +18°C° 0 mm 3 mps 768 mmHg 66%
20:00 +16°C° 0 mm 2 mps 768 mmHg 73%
21:00 +15°C° 0 mm 2 mps 769 mmHg 80%
22:00 +14°C° 0 mm 2 mps 768 mmHg 81%
23:00 +14°C° 0 mm 2 mps 768 mmHg 83%

12 July, Sunday

Time Temperature Precipitation Wind Pressure Humidity
00:00 +13°C° 0 mm 2 mps 768 mmHg 85%
01:00 +13°C° 0 mm 2 mps 768 mmHg 85%
02:00 +12°C° 0 mm 2 mps 768 mmHg 86%
03:00 +12°C° 0 mm 2 mps 768 mmHg 87%
04:00 +13°C° 0 mm 2 mps 768 mmHg 84%
05:00 +14°C° 0 mm 2 mps 768 mmHg 81%
06:00 +14°C° 0 mm 2 mps 768 mmHg 79%
07:00 +16°C° 0 mm 2 mps 768 mmHg 73%
08:00 +18°C° 0 mm 2 mps 768 mmHg 67%
09:00 +19°C° 0 mm 2 mps 769 mmHg 61%
10:00 +20°C° 0 mm 2 mps 768 mmHg 59%
11:00 +20°C° 0 mm 2 mps 768 mmHg 57%
12:00 +21°C° 0 mm 2 mps 768 mmHg 55%
13:00 +21°C° 0 mm 2 mps 768 mmHg 56%
14:00 +21°C° 0 mm 2 mps 768 mmHg 56%
15:00 +21°C° 0 mm 2 mps 768 mmHg 57%
16:00 +20°C° 0 mm 2 mps 767 mmHg 59%
17:00 +20°C° 0 mm 2 mps 767 mmHg 61%
18:00 +20°C° 0 mm 2 mps 767 mmHg 63%
19:00 +18°C° 0 mm 2 mps 767 mmHg 68%
20:00 +17°C° 0 mm 2 mps 767 mmHg 73%
21:00 +16°C° 0 mm 1 mps 767 mmHg 78%
22:00 +15°C° 0 mm 1 mps 767 mmHg 79%
23:00 +15°C° 0 mm 1 mps 767 mmHg 80%

13 July, Monday

Time Temperature Precipitation Wind Pressure Humidity
00:00 +15°C° 0 mm 1 mps 766 mmHg 81%
01:00 +14°C° 0 mm 1 mps 766 mmHg 81%
02:00 +14°C° 0 mm 1 mps 766 mmHg 80%
03:00 +12°C° 0 mm 0 mps 765 mmHg 80%
04:00 +13°C° 0 mm 0 mps 765 mmHg 77%
05:00 +14°C° 0 mm 0 mps 765 mmHg 74%
06:00 +15°C° 0 mm 0 mps 765 mmHg 70%
07:00 +18°C° 0 mm 1 mps 764 mmHg 66%
08:00 +19°C° 0 mm 1 mps 764 mmHg 62%
09:00 +21°C° 0 mm 1 mps 764 mmHg 58%
10:00 +21°C° 0 mm 1 mps 764 mmHg 57%
11:00 +21°C° 0 mm 2 mps 764 mmHg 55%
12:00 +21°C° 0 mm 2 mps 763 mmHg 54%
13:00 +21°C° 0 mm 2 mps 763 mmHg 55%
14:00 +21°C° 0 mm 3 mps 762 mmHg 56%
15:00 +21°C° 0 mm 3 mps 762 mmHg 57%
16:00 +21°C° 0 mm 3 mps 762 mmHg 59%
17:00 +20°C° 0 mm 3 mps 761 mmHg 60%
18:00 +20°C° 0 mm 3 mps 761 mmHg 62%
19:00 +19°C° 0 mm 3 mps 761 mmHg 66%
20:00 +17°C° 0 mm 3 mps 761 mmHg 71%
21:00 +16°C° 0 mm 2 mps 761 mmHg 75%
22:00 +16°C° 0 mm 2 mps 761 mmHg 72%
23:00 +16°C° 0 mm 2 mps 761 mmHg 69%
Show more